Hourly Weather Roundup
Issued by NWS Central Illinois

Home | Current Version | Previous Version | Text Only | Print | Product List | Glossary On
Versions: 1 2 3 4 5 6 7 8 9 10 11 12 13 14 15 16 17 18 19 20 21 22 23 24 25 26 27 28 29 30 31 32 33 34 35 36 37 38 39 40 41 42 43 44 45 46 47 48 49 50
000
NZUS43 KILX 311010
HWRILX

AREA WEATHER ROUNDUP
NATIONAL WEATHER SERVICE, LINCOLN IL
400 AM CST SAT JAN 31 2015


CITY           SKY/WX    TMP DP  RH WIND       PRES   REMARKS
BLOOMINGTON    CLOUDY    29  23  78 SW12      30.30F WCI  19
CHAMPAIGN      MOCLDY    26  21  81 S7        30.32F WCI  18
DECATUR        CLOUDY    28  22  78 SW9       30.32F WCI  19
FLORA          CLEAR     24  22  93 S3        30.37F
GALESBURG      MOCLDY    25  21  85 S5        30.27F WCI  19
JACKSONVILLE   PTCLDY    30  22  73 S7        30.32F WCI  23
LACON          PTCLDY    24  20  83 CALM      30.29F
LAWRENCEVILLE  CLEAR     21  19  92 SE3       30.38F
LITCHFIELD     MOCLDY    27  24  85 S5        30.33F WCI  22
$$


CITY           SKY/WX    TMP DP  RH WIND       PRES   REMARKS
LINCOLN        CLOUDY    29  24  81 S3        30.33F
MACOMB         PTCLDY    26  21  80 SW7       30.31F WCI  19
MATTOON        CLOUDY    26  19  74 S8        30.32F WCI  18
MT CARMEL AP   PTCLDY    27  23  86 CALM      30.38F
OLNEY-NOBLE AP PTCLDY    21  21 100 CALM      30.38S
PARIS          PTCLDY    23  19  86 S3        30.34F
PEORIA         PTCLDY    26  19  74 SW6       30.30F WCI  19
PONTIAC        CLEAR     26  23  87 SW5       30.31F WCI  20
RANTOUL        CLEAR     26  22  84 SW3       30.32S
ROBINSON       CLEAR     19  18  96 CALM      30.39F
SPRINGFIELD    MOCLDY    28  21  75 SW6       30.32F WCI  22
TAYLORVILLE    MOCLDY    27  23  86 S6        30.33F WCI  20
$$

...REGIONAL REPORTS...


CITY           SKY/WX    TMP DP  RH WIND       PRES   REMARKS
CHICAGO O`HARE CLOUDY    26  18  71 SW6       30.26F WCI  19
KANKAKEE       PTCLDY    25  22  87 SW8       30.31F WCI  16
MOLINE         PTCLDY    26  17  68 CALM      30.25F
MOUNT VERNON   MOCLDY    21  16  79 CALM      30.37F
PITTSFIELD     MOCLDY    30  22  72 S5        30.32F WCI  25
QUINCY         MOCLDY    26  20  77 S9        30.29F WCI  17
ROCKFORD       PTCLDY    20  15  81 S6        30.25F WCI  12
$$


CITY           SKY/WX    TMP DP  RH WIND       PRES   REMARKS
BURLINGTON     PTCLDY    27  21  78 S8        30.27F WCI  19
CEDAR RAPIDS   CLEAR     24  19  81 S9        30.19F WCI  14
DES MOINES     CLOUDY    30  21  69 SW3       30.20F
KIRKSVILLE     MOCLDY    29  20  69 S6        30.27F WCI  23
OTTUMWA        CLEAR     26  19  74 S8        30.23F WCI  18
ST LOUIS       MOCLDY    32  20  61 S3        30.35S
$$


CITY           SKY/WX    TMP DP  RH WIND       PRES   REMARKS
TERRE HAUTE    CLEAR     20  15  81 CALM      30.35F
EVANSVILLE     MOCLDY    25  21  85 CALM      30.40F
INDIANAPOLIS   CLEAR     17  14  88 S6        30.33F WCI   9
LAFAYETTE      MOCLDY    19  16  88 SW3       30.32F
MADISON        CLOUDY    24  16  71 S6        30.18F WCI  17
MILWAUKEE      PTCLDY    20  13  74 SW7       30.22F WCI  11
$$





USA.gov is the U.S. government's official web portal to all federal, state and local government web resources and services.